Flag for U.S.A. Weather past 2 weeks in Elizabeth, New Jersey, U.S.A.

Now
74 °F

Partly cloudy.


Feels Like: 77 °F
Forecast: 66 / 81 °F
Wind: 15 mph from North

Location: Newark International Airport

Current Time: Jul 24, 2014 at 11:38:29 PM

Latest Report: Jul 24, 2014 at 10:51 PM


Visibility: 10 mi

Pressure: 29.90 "Hg

Humidity: 48%

Dew point: 53 °F

Location of ElizabethLocation

Historic Weather in Elizabeth — Graph

°F

Elizabeth temperature yesterday

Maximum temperature yesterday: 92 °F (at 5:51 PM)
Minimum temperature yesterday: 71 °F (at 5:51 AM)
Average temperature yesterday: 81 °F

Past Weeks' High & Low Weather Summary

 TemperatureHumidityPressure
High92 °F (Jul 23, 5:51 PM)100% (Jul 15, 9:02 PM)30.24 "Hg (Jul 15, 9:02 PM)
Low65 °F (Jul 17, 5:51 AM)32% (Jul 18, 5:51 PM)29.74 "Hg (Jul 15, 4:51 PM)
Average76 °F66%30.02 "Hg
* Reported Jul 9 9:51 PM — Jul 24 9:51 PM, Elizabeth, Weather by CustomWeather, © 2014

Note: Actual official high and low records may vary slightly from our data, if they occured in-between our weather recording intervals... More about our weather records

Advertising

Elizabeth weather history for previous 24 hours

 ConditionsComfort  
Time TempWeatherWind HumidityBarometerVisibility
9:51 PM
Jul 24
76 °FPartly cloudy.14 mph47%29.89 "Hg10 mi
8:51 PM77 °FBroken clouds.13 mph47%29.88 "Hg10 mi
7:51 PM79 °FBroken clouds.13 mph44%29.86 "Hg10 mi
6:51 PM81 °FBroken clouds.10 mph44%29.83 "Hg10 mi
5:51 PM81 °FBroken clouds.6 mph45%29.83 "Hg10 mi
4:51 PM83 °FBroken clouds.8 mph38%29.83 "Hg10 mi
3:51 PM80 °FBroken clouds.3 mph45%29.84 "Hg10 mi
2:51 PM79 °FBroken clouds.12 mph52%29.85 "Hg10 mi
1:51 PM78 °FBroken clouds.10 mph54%29.86 "Hg10 mi
12:51 PM77 °FBroken clouds.12 mph62%29.87 "Hg10 mi
11:51 AM75 °FBroken clouds.7 mph69%29.87 "Hg10 mi
10:51 AM76 °FPartly sunny.9 mph64%29.86 "Hg10 mi
9:51 AM76 °FBroken clouds.14 mph64%29.85 "Hg10 mi
8:51 AM75 °FBroken clouds.12 mph66%29.85 "Hg10 mi
8:02 AM73 °FPartly sunny.13 mph69%29.85 "Hg10 mi
7:51 AM73 °FBroken clouds.12 mph71%29.85 "Hg10 mi
6:51 AM73 °FPartly sunny.9 mph74%29.84 "Hg10 mi
5:51 AM73 °FPassing clouds.5 mph74%29.82 "Hg10 mi
4:51 AM72 °FPartly cloudy.8 mph81%29.81 "Hg10 mi
3:51 AM73 °FPartly cloudy.7 mph84%29.81 "Hg10 mi
2:51 AM73 °FPartly cloudy.7 mph88%29.80 "Hg10 mi
1:51 AM75 °FPartly cloudy.6 mph85%29.82 "Hg10 mi
12:51 AM76 °FMostly cloudy.9 mph85%29.80 "Hg10 mi
11:51 PM
Jul 23
75 °FMostly cloudy.6 mph90%29.80 "Hg10 mi
Weather by CustomWeather, © 2014

See weather overviewHow to use our weather pages